Dewpoint
13 13 12 11 11 11 10 9 8 7 7 7 7 8 8 9 9 9 9 9 9 7 7 7 8 7 7 8 8 8 9 9 9 9 10 11 11 10 9 9 9 10 11
11 11 11 10 10 9 9 8 7 6 6 7 8 8 8 8 9 9 9 10 10 8 8 6 7 7 8 8 8 8 8 9 9 10 10 11 11 10 11 11 11 11 11
10 9 8 8 8 9 9 8 8 7 7 8 8 8 8 8 9 9 10 10 9 9 8 7 8 7 8 8 7 8 9 9 10 10 10 10 11 11 11 11 11 10 10
6 7 8 8 9 9 9 9 9 8 8 8 7 8 8 9 9 10 9 9 9 8 8 8 8 8 8 8 8 9 9 9 9 11 10 10 10 10 11 10 9 9 8
7 8 8 8 9 9 9 9 7 8 8 8 7 8 9 10 9 10 9 9 9 9 8 8 8 8 9 9 9 8 9 9 9 10 10 10 9 9 10 9 9 9 8
8 8 8 9 8 9 9 8 8 8 7 7 7 8 7 9 10 10 9 10 9 9 9 8 9 9 9 9 10 10 10 9 9 10 10 9 9 9 9 9 9 7 7
9 9 8 9 8 8 9 8 8 7 7 7 8 8 8 7 9 10 10 10 10 9 9 9 9 9 9 9 10 9 10 9 9 9 9 9 9 9 9 7 7 7 7
10 9 9 8 8 7 7 8 8 7 7 7 8 8 8 8 8 9 10 9 9 10 10 10 9 9 9 9 9 9 9 9 9 9 9 9 8 9 7 7 7 7 8
10 9 9 8 8 8 7 7 7 7 7 7 8 8 9 8 9 10 10 9 10 10 10 10 10 10 10 9 9 9 9 9 9 9 9 9 8 8 7 7 8 8 8
8 9 9 9 8 8 8 7 8 8 8 8 8 9 9 7 9 10 10 10 10 10 10 10 9 9 9 9 9 9 9 9 9 8 8 9 8 8 7 7 7 7 5
8 7 8 9 8 8 8 8 8 8 8 8 9 9 9 8 10 11 11 10 10 9 9 10 9 9 9 9 9 9 8 8 8 8 9 8 8 8 8 8 7 6 -5
8 7 8 8 8 8 9 9 9 9 9 9 9 9 9 9 10 11 11 10 10 10 8 9 9 9 9 9 9 8 7 8 8 8 8 8 8 8 8 7 6 1 -4
8 7 8 7 8 9 9 9 9 9 10 10 10 10 9 9 10 11 10 10 10 10 8 9 9 9 9 9 9 8 8 8 8 8 8 8 8 8 7 7 5 3 2
8 8 8 6 8 9 9 8 10 10 10 10 10 10 8 9 10 10 10 10 10 10 9 9 9 9 8 8 8 8 7 7 7 8 8 8 8 7 4 1 1 1 1
8 8 8 8 9 9 7 9 9 9 9 9 10 10 7 8 10 10 10 10 11 10 9 9 9 9 9 9 9 9 8 8 8 7 6 3 2 2 4 5 5 2 2
7 8 8 8 9 8 5 8 9 9 10 9 9 9 9 10 10 10 10 10 10 10 10 9 9 9 9 9 8 9 8 8 7 6 2 4 6 5 6 7 7 8 8
6 7 7 8 9 9 6 7 8 8 9 10 9 9 9 10 10 10 10 9 10 10 10 10 9 9 9 9 8 8 8 8 7 6 5 3 2 5 6 5 5 6 6
5 5 7 7 8 9 8 4 8 8 7 8 9 10 9 10 10 10 10 10 9 9 10 10 10 10 10 8 8 8 8 8 8 7 7 6 5 4 5 6 6 6 6
4 4 6 7 7 8 8 7 5 7 6 7 9 9 9 8 10 10 9 9 8 8 8 8 8 9 9 8 8 8 8 8 7 7 7 7 6 6 6 6 6 6 6
4 3 3 4 6 8 8 9 8 6 6 6 6 9 9 9 7 8 9 8 8 8 7 8 8 8 8 8 9 8 8 8 8 8 8 8 7 7 7 6 6 6 5
5 5 4 4 4 5 7 8 8 8 7 6 7 7 5 6 5 5 6 6 7 7 7 7 7 7 5 4 7 7 8 8 8 7 7 7 7 6 6 6 6 7 8
4 4 5 5 4 5 6 7 7 6 6 7 7 7 8 7 6 6 6 6 4 3 5 7 6 6 6 6 2 -1 4 6 7 7 7 6 5 6 7 8 8 8 8
7 6 5 5 5 6 6 6 8 8 6 5 5 7 7 7 8 8 8 8 7 7 6 4 3 4 6 6 6 6 5 -1 -1 1 2 4 6 7 7 7 7 6 6
9 8 8 7 6 6 6 6 7 7 7 7 6 5 5 5 6 6 6 7 6 6 7 7 6 4 1 0 3 6 5 6 6 3 1 3 5 6 6 6 6 7 8
9 9 9 9 9 9 8 7 7 7 7 7 6 6 6 5 5 5 5 5 5 4 5 5 5 6 6 6 2 -2 -3 -1 3 5 5 6 6 6 6 6 7 7 8
6 8 8 7 9 9 9 10 11 11 9 8 7 7 6 6 6 6 5 5 5 5 5 4 3 2 2 3 4 5 4 3 1 -2 -3 -1 0 3 5 6 7 7 8
Wind_Speed
20 20 20 19 17 16 16 14 11 8 8 9 11 9 7 4 4 5 7 9 8 8 8 8 7 10 10 9 8 10 11 11 9 7 10 11 12 12 16 14 19 19 16
20 20 19 18 16 14 12 11 10 10 12 13 10 6 2 4 6 9 10 11 10 10 9 9 7 9 10 10 9 9 11 12 10 12 16 16 11 11 14 16 22 20 25
18 16 15 13 12 11 11 11 12 12 11 11 8 3 2 6 7 9 10 6 7 9 10 9 8 8 10 11 10 11 12 12 13 16 22 16 18 16 23 23 23 38 39
17 15 14 14 10 9 11 11 13 12 13 8 5 1 4 6 6 3 2 3 5 7 7 9 9 9 9 10 10 10 12 14 14 22 20 22 25 27 22 37 42 42 42
17 15 14 12 10 6 12 10 11 15 10 8 5 1 4 5 3 4 1 1 3 4 6 9 9 9 8 11 9 10 14 16 21 25 25 27 30 37 39 44 39 37 35
16 14 12 10 8 10 11 9 15 12 9 7 5 4 6 6 5 4 1 1 2 4 7 9 10 9 6 9 8 10 15 18 26 28 31 35 40 41 43 39 39 44 39
14 12 9 9 11 11 10 11 15 9 8 7 4 4 6 7 6 6 3 2 4 8 9 9 11 11 10 10 10 13 14 12 16 22 30 35 41 40 42 46 45 40 38
12 11 8 12 13 13 13 13 12 8 7 5 3 2 5 6 6 5 3 3 7 9 9 9 11 7 6 9 15 20 19 15 15 21 26 28 35 43 44 42 40 37 31
12 10 11 12 13 12 11 10 11 9 8 7 3 1 4 5 5 6 6 7 11 10 10 9 7 8 12 18 22 23 20 19 21 25 26 32 40 42 34 36 35 33 31
13 8 9 12 10 12 12 9 11 10 9 7 4 1 3 4 4 5 6 7 10 12 10 8 13 14 15 19 23 27 24 22 22 27 28 33 38 31 27 27 29 28 31
13 11 9 10 10 10 9 8 9 10 9 7 5 3 1 3 4 5 5 5 9 13 14 17 16 13 16 21 23 25 29 27 27 32 35 34 28 27 26 21 21 22 24
14 13 10 8 9 8 7 7 8 8 9 8 7 5 2 3 5 6 5 6 12 13 17 21 19 17 19 21 25 30 29 28 29 29 30 26 23 22 24 22 15 16 16
16 14 11 7 8 7 6 6 7 6 6 6 7 5 5 5 7 7 7 9 15 15 19 22 21 18 22 22 23 22 21 23 27 26 26 24 24 22 23 20 17 18 15
17 14 12 7 7 7 5 6 3 2 4 6 7 7 7 5 7 8 8 13 16 17 20 22 21 19 22 20 21 19 24 24 24 24 24 24 23 22 20 17 18 18 18
17 16 14 12 8 6 5 5 4 4 6 4 6 5 5 4 8 8 7 13 18 19 22 23 23 21 22 21 19 19 22 21 24 24 24 24 23 22 20 18 17 17 17
16 18 15 13 11 8 6 9 7 6 7 7 7 5 5 7 10 10 11 12 18 21 21 22 23 22 22 22 23 21 23 23 22 23 23 22 21 21 21 20 18 17 15
14 17 17 16 14 10 7 11 9 6 6 6 6 7 7 7 10 10 13 13 13 18 21 21 21 22 22 22 23 24 24 24 23 23 21 20 20 19 19 19 19 19 18
14 12 17 16 15 12 8 9 10 6 3 4 5 5 7 10 10 12 14 15 15 15 15 18 21 21 23 24 25 26 25 25 26 24 23 22 21 21 20 20 19 19 20
16 13 14 15 16 14 10 9 9 9 5 3 8 7 6 8 11 11 11 13 15 15 14 13 12 17 20 22 25 26 26 27 28 27 25 26 26 26 26 25 24 23 23
18 15 13 11 14 17 15 13 11 11 9 8 7 9 8 8 9 13 13 14 14 14 14 13 13 13 13 15 19 24 27 28 28 29 29 29 29 29 28 28 27 26 25
17 17 16 18 15 14 18 17 14 13 12 12 10 10 10 9 7 8 9 12 14 16 18 18 16 15 15 16 17 19 24 29 29 29 29 28 28 29 27 26 25 25 26
18 16 16 17 18 20 20 20 18 14 13 13 12 13 13 14 15 16 15 13 11 13 15 18 21 21 20 20 20 21 24 26 29 31 31 31 30 29 28 29 29 30 30
8 11 14 16 17 19 20 21 23 22 19 16 14 16 18 18 17 17 18 17 18 17 17 18 21 23 24 25 26 26 27 28 30 31 33 33 33 34 33 34 34 35 35
5 4 2 7 14 16 17 19 20 22 24 24 24 22 22 22 22 22 22 21 21 21 23 23 23 23 25 27 29 30 31 31 30 32 33 37 39 39 39 40 40 40 40
5 4 3 3 3 2 8 12 16 18 20 23 25 27 29 29 29 29 28 28 28 27 27 26 27 27 28 29 29 31 33 34 35 36 36 38 40 42 44 44 44 44 44
3 2 2 2 3 3 3 4 3 1 7 13 19 23 25 26 26 27 27 29 30 31 32 32 31 29 29 31 31 32 32 33 34 36 38 41 43 45 47 48 48 49 49
Wind_Direction
141 141 143 149 158 164 168 174 179 173 175 166 160 158 162 185 246 275 276 273 264 242 235 227 222 209 212 217 221 222 227 221 218 183 172 170 168 186 185 188 178 176 175
139 141 146 152 158 166 174 170 158 152 148 155 157 162 213 277 284 281 281 269 246 234 231 231 217 206 211 215 223 224 221 221 214 159 165 165 167 162 162 157 158 161 174
140 143 146 151 153 159 165 159 158 158 164 166 162 176 260 300 308 298 277 253 217 221 224 217 207 208 209 220 227 231 209 204 195 175 160 165 166 175 165 159 164 160 153
135 136 134 134 128 140 156 155 159 162 156 155 152 141 316 322 327 297 289 232 212 206 211 208 211 212 219 229 237 220 192 186 175 172 165 162 165 158 161 154 141 150 138
137 141 136 139 142 137 157 154 161 157 157 146 139 48 16 24 24 9 1 167 222 212 205 210 207 210 221 231 216 203 183 176 172 165 156 158 158 155 157 149 147 146 139
158 158 154 159 156 160 158 153 155 155 151 152 149 49 37 37 29 15 355 19 236 199 173 180 189 192 202 171 176 182 188 186 174 173 162 162 159 157 157 155 152 145 145
174 168 163 160 147 150 167 166 159 161 156 163 138 56 39 34 33 29 27 75 119 129 150 181 179 155 149 144 142 154 170 162 186 181 174 169 167 166 156 147 151 150 151
185 185 175 159 149 152 143 154 170 168 170 178 168 48 27 22 21 20 49 118 133 130 132 142 152 155 166 163 143 148 160 158 170 174 172 171 168 163 154 152 153 153 151
187 191 172 163 166 166 176 177 179 180 182 184 198 19 3 24 36 49 59 114 129 128 131 147 177 150 156 158 150 146 154 164 171 172 168 166 161 155 154 155 152 153 157
177 171 166 168 161 174 183 189 193 199 194 202 217 308 344 72 74 74 73 109 135 130 127 123 123 131 146 150 150 147 143 150 156 156 154 150 155 158 158 158 161 168 163
167 153 157 174 171 179 189 198 197 192 194 205 217 237 3 106 102 104 87 79 141 132 123 126 120 131 139 152 148 141 139 140 140 147 151 152 155 165 168 176 176 175 167
170 173 157 156 184 198 197 204 200 206 208 213 219 224 206 135 129 118 95 89 139 136 130 133 127 130 144 148 135 140 138 141 142 146 157 160 161 166 166 168 170 172 161
180 183 162 150 181 202 207 207 189 197 207 218 219 203 192 153 147 138 120 121 142 138 137 136 132 129 139 139 143 146 149 148 154 159 164 161 159 155 164 166 170 181 183
190 194 177 170 178 203 195 183 194 235 218 192 193 188 180 162 157 154 141 137 144 147 146 144 143 141 150 144 152 157 160 160 161 160 157 156 160 165 169 174 178 181 191
200 202 194 188 180 182 174 159 122 94 92 116 166 180 181 173 152 143 147 154 156 158 153 151 151 152 156 165 162 158 164 167 169 165 162 165 168 170 173 176 181 187 197
207 210 208 202 192 185 173 162 140 110 99 109 132 136 155 153 156 152 152 156 158 161 163 164 163 166 171 170 171 168 170 174 173 174 175 176 176 179 183 189 195 202 208
209 215 214 210 201 187 180 180 165 143 109 102 115 125 131 147 155 153 155 154 162 173 175 176 179 182 186 183 181 182 180 182 182 187 190 192 196 197 197 205 212 221 230
210 214 224 220 214 204 188 179 186 176 146 132 142 136 137 150 158 160 164 169 170 173 186 191 189 190 194 193 191 193 194 194 197 200 204 208 209 212 216 219 225 236 244
213 216 221 232 229 221 203 183 180 184 189 188 176 167 161 162 169 175 187 195 189 184 182 187 193 203 204 205 205 204 204 205 207 210 212 216 221 226 231 236 244 252 257
215 219 225 230 239 234 224 215 206 202 207 205 203 204 197 190 196 201 200 201 201 207 209 206 206 210 213 215 216 216 215 216 217 221 225 227 230 234 240 245 251 257 262
218 220 227 234 238 247 242 234 229 224 220 223 224 230 234 242 244 234 225 223 221 219 218 219 221 225 226 229 229 226 223 223 224 226 227 228 231 236 241 246 250 257 264
223 227 234 242 247 246 248 247 242 239 236 232 226 230 240 245 251 254 257 256 253 244 236 234 233 232 232 232 231 231 233 234 233 234 236 238 238 238 242 248 255 262 267
214 222 234 246 253 259 261 259 253 249 247 244 239 244 252 256 259 263 265 267 265 262 258 251 246 243 240 238 238 239 239 237 237 237 236 236 238 242 247 253 258 263 267
76 92 124 243 249 254 260 261 261 260 260 261 260 259 259 262 265 268 269 269 269 271 268 264 260 257 254 250 247 246 246 246 245 244 244 245 247 251 254 258 261 264 268
113 92 119 94 73 250 257 257 256 256 258 261 264 266 268 269 271 272 273 272 272 272 273 273 272 269 264 260 258 256 255 253 252 251 251 251 253 255 257 259 261 262 265
99 140 163 177 167 122 114 84 93 213 248 259 263 264 266 269 272 274 275 277 278 278 276 273 271 271 272 272 270 266 263 260 257 255 255 256 256 257 258 259 261 263 266
Height
1398 1402 1406 1411 1416 1421 1425 1428 1431 1434 1436 1439 1441 1443 1445 1447 1447 1447 1448 1448 1449 1449 1449 1451 1452 1454 1456 1458 1461 1463 1465 1467 1469 1471 1475 1477 1480 1483 1486 1490 1493 1497 1502
1402 1405 1409 1414 1418 1422 1425 1428 1430 1433 1436 1439 1441 1444 1445 1445 1445 1445 1445 1444 1445 1446 1447 1449 1450 1452 1455 1457 1459 1461 1463 1465 1468 1471 1474 1477 1481 1483 1487 1490 1494 1499 1504
1405 1408 1412 1416 1419 1423 1425 1428 1431 1434 1437 1439 1442 1443 1444 1444 1443 1442 1440 1442 1442 1444 1446 1447 1449 1451 1454 1456 1458 1459 1461 1464 1468 1470 1473 1478 1481 1484 1487 1490 1496 1499 1505
1408 1411 1415 1418 1421 1423 1426 1429 1432 1435 1438 1440 1442 1443 1443 1442 1441 1440 1440 1439 1440 1442 1444 1446 1448 1450 1452 1454 1456 1457 1459 1462 1466 1469 1474 1478 1482 1486 1489 1491 1496 1504 1509
1410 1414 1416 1419 1421 1424 1427 1430 1432 1435 1439 1440 1441 1442 1441 1441 1440 1440 1439 1439 1439 1441 1443 1444 1447 1449 1451 1452 1454 1456 1458 1461 1465 1470 1474 1478 1483 1486 1489 1493 1498 1506 1516
1412 1415 1418 1420 1422 1425 1428 1431 1433 1436 1439 1440 1442 1442 1441 1441 1440 1439 1439 1439 1439 1440 1441 1443 1446 1447 1449 1450 1453 1455 1458 1460 1463 1468 1473 1478 1483 1488 1492 1496 1502 1509 1517
1414 1417 1419 1421 1423 1426 1429 1432 1435 1437 1439 1441 1442 1442 1442 1442 1441 1440 1439 1439 1439 1440 1442 1444 1445 1447 1449 1450 1452 1455 1459 1463 1467 1470 1473 1479 1484 1488 1493 1499 1506 1511 1514
1415 1418 1420 1423 1425 1428 1431 1433 1436 1438 1440 1441 1442 1443 1443 1443 1441 1440 1439 1439 1440 1441 1442 1443 1446 1447 1449 1451 1454 1457 1461 1466 1470 1473 1477 1482 1488 1493 1498 1504 1507 1513 1521
1416 1419 1421 1424 1426 1429 1432 1434 1436 1439 1441 1442 1443 1444 1444 1443 1442 1441 1441 1440 1441 1442 1443 1445 1447 1448 1450 1452 1456 1460 1463 1468 1472 1475 1481 1486 1492 1499 1504 1507 1514 1518 1524
1417 1420 1422 1425 1427 1430 1433 1435 1437 1439 1441 1442 1443 1444 1444 1444 1443 1442 1443 1443 1443 1444 1446 1447 1448 1451 1454 1456 1460 1463 1467 1472 1476 1481 1487 1494 1501 1506 1511 1515 1518 1521 1524
1418 1421 1423 1426 1429 1431 1433 1435 1436 1438 1440 1441 1443 1444 1444 1445 1444 1444 1444 1444 1445 1446 1448 1449 1452 1456 1459 1463 1466 1469 1472 1477 1483 1488 1494 1500 1505 1511 1515 1519 1523 1526 1528
1419 1422 1425 1427 1429 1431 1433 1435 1436 1438 1439 1440 1442 1443 1444 1445 1446 1446 1446 1446 1447 1449 1451 1454 1457 1461 1464 1468 1472 1476 1480 1485 1490 1494 1500 1504 1508 1512 1517 1521 1526 1531 1534
1419 1422 1425 1427 1429 1431 1433 1434 1436 1437 1438 1439 1440 1443 1444 1446 1447 1447 1448 1448 1450 1453 1455 1458 1461 1465 1469 1473 1478 1482 1485 1489 1494 1498 1502 1506 1511 1515 1519 1523 1527 1530 1533
1419 1422 1426 1428 1430 1431 1433 1434 1436 1437 1437 1438 1440 1442 1444 1446 1447 1449 1450 1451 1453 1456 1458 1462 1465 1469 1474 1478 1481 1485 1489 1493 1497 1501 1504 1509 1513 1516 1520 1523 1526 1529 1532
1419 1422 1425 1428 1430 1431 1432 1434 1436 1437 1437 1439 1441 1443 1445 1446 1448 1450 1452 1453 1455 1458 1460 1464 1468 1471 1475 1480 1484 1488 1492 1495 1499 1503 1506 1509 1513 1517 1520 1524 1526 1529 1531
1418 1421 1424 1427 1430 1431 1432 1434 1436 1438 1439 1440 1441 1444 1445 1447 1449 1451 1453 1455 1457 1461 1464 1466 1470 1474 1477 1481 1485 1489 1493 1497 1501 1505 1508 1511 1514 1517 1520 1523 1526 1528 1530
1417 1420 1423 1426 1429 1431 1432 1434 1437 1439 1440 1442 1443 1445 1446 1448 1450 1452 1454 1457 1459 1462 1465 1468 1472 1475 1479 1482 1486 1490 1493 1497 1501 1505 1508 1511 1514 1517 1519 1522 1524 1526 1527
1416 1419 1422 1424 1427 1430 1432 1434 1437 1439 1441 1442 1444 1446 1447 1449 1452 1454 1456 1458 1460 1463 1466 1468 1471 1474 1478 1481 1485 1488 1492 1496 1499 1503 1506 1509 1512 1514 1516 1518 1520 1522 1524
1414 1417 1420 1423 1426 1429 1432 1435 1437 1439 1441 1443 1444 1447 1448 1450 1452 1455 1457 1459 1462 1464 1466 1469 1472 1474 1477 1480 1484 1487 1490 1494 1497 1500 1503 1505 1508 1511 1512 1514 1516 1518 1520
1411 1415 1418 1421 1424 1427 1431 1434 1436 1438 1440 1442 1444 1446 1448 1450 1452 1454 1456 1458 1460 1464 1466 1469 1471 1474 1476 1479 1481 1484 1487 1490 1493 1496 1499 1502 1504 1506 1508 1510 1512 1513 1513
1408 1412 1415 1419 1422 1425 1428 1431 1433 1436 1438 1441 1443 1445 1448 1449 1451 1453 1455 1457 1459 1461 1463 1466 1469 1471 1474 1476 1478 1480 1482 1486 1489 1492 1494 1497 1499 1501 1503 1505 1506 1507 1508
1406 1409 1412 1415 1419 1422 1425 1428 1431 1433 1436 1438 1441 1443 1445 1447 1449 1451 1453 1455 1456 1458 1461 1463 1465 1467 1469 1471 1473 1475 1478 1480 1483 1486 1488 1491 1492 1494 1496 1498 1499 1500 1501
1403 1405 1408 1412 1415 1418 1421 1424 1427 1430 1433 1435 1438 1440 1441 1443 1445 1447 1448 1450 1452 1454 1456 1458 1459 1461 1463 1465 1467 1469 1470 1472 1475 1478 1480 1483 1485 1486 1489 1489 1490 1490 1490
1403 1404 1406 1409 1411 1414 1416 1419 1421 1424 1428 1430 1433 1434 1436 1438 1439 1441 1443 1445 1446 1448 1449 1451 1453 1454 1456 1458 1459 1461 1463 1465 1468 1470 1473 1474 1475 1477 1478 1478 1479 1479 1479
1402 1404 1406 1409 1410 1412 1413 1415 1417 1418 1421 1423 1425 1427 1429 1431 1432 1434 1436 1438 1439 1441 1442 1444 1445 1447 1448 1450 1451 1453 1454 1456 1458 1460 1462 1464 1464 1465 1465 1466 1466 1466 1466
1401 1403 1406 1410 1411 1413 1413 1414 1416 1416 1416 1417 1418 1419 1420 1422 1424 1426 1428 1429 1431 1432 1433 1434 1436 1438 1439 1440 1442 1444 1445 1446 1448 1449 1451 1452 1452 1452 1452 1452 1453 1453 1454